This demonstration page uses our WeatherBlox Daily Observations layout. Learn more.

Left ArrowRight Arrow

Hourly Observations for October 7, 2019

Temp ( °F °C ) Dew Point ( °F °C ) Humidity (%) Winds ( mph kmh ) Pressure ( in mb ) Visibility ( mi km ) Precip ( " mm )
12:53 am 00:53 Cloudy with Light Rain 58 14.4 58 14.4 100 100 Calm 30.15 1021 9 14 0.01 0.25
1:53 am 01:53 Cloudy with Light Rain 58 14.4 57 13.9 97 97 W 3 6 30.16 1021 9 14 0.00 0.00
2:35 am 02:35 Cloudy with Light Rain 58 14.4 58 14.4 100 100 Calm 30.16 1021 9 14 0.01 0.25
2:53 am 02:53 Cloudy 58 14.4 58 14.4 100 100 Calm 30.14 1021 8 13 0.01 0.25
3:53 am 03:53 Cloudy with Light Rain 58 14.4 57 13.9 97 97 Calm 30.15 1021 7 11 0.00 0.00
4:53 am 04:53 Cloudy with Light Rain 58 14.4 57 13.9 97 97 Calm 30.15 1021 10 16 0.00 0.00
5:42 am 05:42 Cloudy with Mist and Fog 58 14.4 57 13.9 97 97 Calm 30.17 1022 6 10 0.01 0.25
5:53 am 05:53 Cloudy 58 14.4 57 13.9 97 97 W 3 6 30.17 1022 10 16 0.01 0.25
6:53 am 06:53 Cloudy with Mist and Fog 58 14.4 57 13.9 97 97 Calm 30.17 1022 6 10 0.00 0.00
7:39 am 07:39 Cloudy with Mist and Fog 57 13.9 57 13.9 100 100 Calm 30.18 1022 5 8 0.00 0.00
7:53 am 07:53 Cloudy with Mist and Fog 57 13.9 57 13.9 100 100 Calm 30.17 1022 4 6 0.00 0.00
8:53 am 08:53 Cloudy 58 14.4 57 13.9 97 97 Calm 30.19 1022 7 11 0.00 0.00
9:44 am 09:44 Mostly Cloudy 59 15 57 13.9 93 93 SSW 3 6 30.21 1023 7 11 0.00 0.00
9:53 am 09:53 Mostly Cloudy 59 15 57 13.9 93 93 Calm 30.21 1023 7 11 0.00 0.00
10:02 am 10:02 Partly Cloudy 59 15 57 13.9 93 93 Calm 30.21 1023 9 14 0.00 0.00
10:53 am 10:53 Sunny 59 15 55 12.8 87 87 Calm 30.22 1023 10 16 0.00 0.00
11:53 am 11:53 Sunny 60 15.6 56 13.3 86 86 WSW 3 6 30.22 1023 10 16 0.00 0.00
12:53 pm 12:53 Partly Cloudy 61 16.1 55 12.8 81 81 Calm 30.21 1023 10 16 0.00 0.00
1:03 pm 13:03 Mostly Cloudy 61 16.1 54 12.2 78 78 Calm 30.21 1023 10 16 0.00 0.00
1:12 pm 13:12 Mostly Sunny 62 16.7 54 12.2 75 75 Calm 30.20 1023 10 16 0.00 0.00
1:53 pm 13:53 Partly Cloudy 62 16.7 55 12.8 78 78 Calm 30.19 1022 10 16 0.00 0.00
2:53 pm 14:53 Sunny 63 17.2 53 11.7 70 70 Calm 30.18 1022 10 16 0.00 0.00
3:53 pm 15:53 Sunny 65 18.3 48 8.9 54 54 VRB 3 6 30.19 1022 10 16 0.00 0.00
4:53 pm 16:53 Sunny 67 19.4 44 6.7 44 44 undefined N/A 30.18 1022 10 16 0.00 0.00
5:53 pm 17:53 Sunny 61 16.1 51 10.6 70 70 Calm 30.19 1022 10 16 0.00 0.00
6:53 pm 18:53 Sunny 58 14.4 51 10.6 78 78 Calm 30.19 1022 10 16 0.00 0.00
7:53 pm 19:53 Clear 52 11.1 50 10 93 93 Calm 30.20 1023 10 16 0.00 0.00
8:53 pm 20:53 Clear 49 9.4 48 8.9 97 97 Calm 30.22 1023 10 16 0.00 0.00
9:53 pm 21:53 Clear 48 8.9 47 8.3 96 96 Calm 30.23 1024 10 16 0.00 0.00
10:53 pm 22:53 Clear 46 7.8 46 7.8 100 100 Calm 30.24 1024 10 16 0.00 0.00
11:53 pm 23:53 Clear 46 7.8 45 7.2 96 96 Calm 30.25 1024 9 14 0.00 0.00

Powered by AerisWeather